Temp
72 74 81 83 83 83 83 83 83 83 83 83 83 83 83 83 83 83 83 84 84 84 84 84 84 84 84 84 84 84 83 83 83 83 83 83 83 83 82 83 83 90 82
74 75 81 83 83 84 83 83 83 83 83 83 83 83 83 83 84 84 84 84 84 84 84 84 84 84 84 84 84 83 83 83 84 84 83 83 83 83 83 82 82 85 82
79 80 87 83 83 84 83 83 83 83 83 83 83 83 83 84 84 84 84 83 84 84 84 84 84 84 84 83 83 83 83 83 83 83 83 89 89 83 83 83 82 82 82
87 87 87 82 83 83 83 83 83 83 84 83 83 83 83 83 84 84 83 83 83 84 84 84 84 84 83 83 83 83 83 83 83 82 89 90 91 82 82 82 82 82 81
83 87 86 83 83 83 83 83 83 83 83 83 83 84 83 83 83 84 84 84 84 84 84 84 84 83 83 83 83 83 83 83 83 85 87 88 90 85 82 82 82 81 81
82 87 84 83 84 83 83 83 83 83 83 83 84 84 84 84 84 84 84 84 83 84 84 84 84 83 83 83 83 83 83 83 83 89 88 87 87 82 82 82 81 81 81
82 89 88 83 83 83 83 83 83 83 83 84 84 84 84 84 84 83 83 83 84 83 83 83 84 83 83 83 83 83 83 84 89 91 89 87 87 80 82 82 81 81 81
83 88 87 83 83 83 83 83 83 83 83 84 84 83 83 83 83 83 83 83 83 83 83 83 83 83 83 83 83 83 83 84 90 91 90 89 83 80 82 82 82 82 81
85 87 85 86 84 84 83 83 83 84 84 83 83 83 83 83 83 83 83 83 83 83 83 83 83 83 83 83 83 83 83 84 92 91 91 92 80 80 82 82 82 81 81
84 85 81 84 86 87 88 83 83 83 84 84 84 84 83 83 83 83 82 82 83 83 83 83 83 83 83 83 83 83 83 84 93 92 92 93 80 81 82 82 82 82 81
83 84 82 81 84 84 85 86 84 83 84 84 85 83 85 90 89 87 83 83 84 84 84 84 84 83 83 83 83 82 83 92 93 92 93 83 80 81 82 82 82 81 81
81 83 85 84 84 84 87 86 86 87 90 88 88 86 89 87 87 87 85 82 84 83 85 84 83 83 85 89 92 85 92 91 92 92 93 81 80 81 82 82 81 81 81
82 84 83 83 83 85 85 86 87 88 88 88 84 85 85 86 86 88 88 89 88 85 91 89 89 90 87 87 88 89 89 89 92 92 91 81 81 81 82 82 82 81 81
81 83 84 83 82 83 85 86 86 87 87 87 86 83 83 86 85 84 88 88 86 88 85 87 88 87 86 86 87 87 88 90 91 91 90 82 81 81 82 82 82 81 81
80 82 83 82 81 82 81 84 84 84 86 87 86 85 85 85 83 85 86 87 87 88 87 82 84 85 84 85 86 85 86 87 88 90 91 83 81 81 82 82 82 82 82
82 82 84 82 82 82 81 81 83 84 85 85 87 87 84 85 85 86 86 87 87 88 87 85 83 83 83 84 84 85 85 86 89 88 91 91 81 80 81 82 82 83 83
83 83 83 83 83 81 81 82 83 85 87 86 87 85 85 85 85 83 86 87 88 87 84 85 84 85 85 86 83 82 85 86 88 87 88 89 90 82 80 81 81 82 82
83 81 83 85 83 82 81 83 84 86 86 87 87 88 86 86 85 84 86 87 88 86 86 86 85 84 85 85 83 85 85 85 85 85 87 88 89 89 85 81 80 81 81
83 82 81 82 82 82 82 83 84 84 85 87 88 88 86 86 87 85 88 87 85 87 87 85 85 82 83 84 84 85 85 85 86 88 85 85 86 87 89 84 80 79 81
84 83 83 83 82 82 83 82 85 85 86 87 87 88 87 89 87 86 88 86 85 86 86 86 81 84 82 82 82 83 83 85 87 85 85 87 87 87 88 85 86 87 81
84 83 81 81 81 82 82 83 83 84 86 87 87 86 86 87 87 85 87 86 85 84 83 82 82 80 83 81 80 82 83 85 84 86 88 87 86 87 85 86 86 86 88
84 83 82 81 81 81 84 83 85 85 87 87 88 85 86 86 86 85 84 85 84 84 82 82 79 79 80 80 78 78 76 81 85 85 85 85 84 86 86 86 84 83 85
84 83 82 82 82 82 83 83 83 83 83 84 85 86 87 86 86 85 84 84 83 83 84 81 80 78 78 79 77 76 74 73 76 84 82 83 81 83 83 83 82 83 83
86 86 84 83 82 82 82 82 80 83 82 85 86 87 87 85 86 85 83 83 80 83 81 81 82 79 76 76 78 79 76 74 71 71 80 81 81 79 79 81 82 82 83
88 87 85 83 82 83 81 82 82 81 85 87 86 83 83 83 83 83 81 79 79 82 80 79 78 77 79 76 77 76 75 76 74 67 68 75 80 82 82 81 82 82 82
88 87 87 83 81 82 81 81 80 81 82 83 83 84 84 84 83 81 80 78 78 79 80 80 78 77 76 76 77 76 75 72 72 70 70 71 72 77 81 81 81 81 82
MSLP
1015.59 1016.19 1016.14 1015.75 1015.62 1015.61 1015.68 1015.92 1016.30 1016.47 1016.55 1016.67 1016.78 1016.90 1017.02 1017.18 1017.29 1017.39 1017.55 1017.49 1017.55 1017.64 1017.70 1017.79 1017.79 1017.84 1017.90 1018.01 1018.06 1018.21 1018.30 1018.44 1018.54 1018.72 1018.81 1018.79 1018.79 1018.69 1018.82 1018.93 1019.00 1018.63 1019.31
1016.48 1016.62 1016.40 1016.12 1015.95 1016.04 1016.18 1016.48 1016.67 1016.80 1016.88 1016.96 1017.10 1017.16 1017.24 1017.38 1017.47 1017.62 1017.73 1017.79 1017.79 1017.93 1018.01 1018.11 1018.09 1018.19 1018.27 1018.30 1018.47 1018.53 1018.60 1018.70 1018.73 1018.83 1018.92 1019.00 1019.02 1019.14 1019.09 1019.16 1019.15 1019.29 1019.46
1016.71 1016.74 1016.46 1016.45 1016.41 1016.57 1016.73 1016.95 1017.10 1017.21 1017.33 1017.41 1017.47 1017.45 1017.47 1017.59 1017.73 1017.80 1017.85 1018.11 1018.16 1018.27 1018.36 1018.44 1018.44 1018.51 1018.58 1018.62 1018.78 1018.85 1018.90 1018.99 1019.07 1019.07 1019.14 1018.72 1018.73 1019.24 1019.28 1019.37 1019.39 1019.49 1019.55
1016.30 1016.62 1016.63 1016.78 1016.85 1017.01 1017.15 1017.27 1017.40 1017.63 1017.69 1017.69 1017.75 1017.74 1017.73 1017.87 1017.93 1018.10 1018.20 1018.39 1018.58 1018.64 1018.63 1018.70 1018.68 1018.75 1018.87 1018.96 1019.05 1019.11 1019.13 1019.15 1019.21 1019.27 1018.95 1018.81 1018.62 1019.36 1019.46 1019.55 1019.65 1019.65 1019.67
1016.63 1016.77 1017.01 1017.11 1017.17 1017.30 1017.49 1017.56 1017.66 1017.81 1017.87 1017.92 1018.02 1018.04 1018.14 1018.23 1018.31 1018.42 1018.55 1018.73 1018.88 1018.93 1018.99 1018.96 1018.97 1019.03 1019.09 1019.19 1019.31 1019.33 1019.27 1019.28 1019.29 1019.19 1019.09 1019.16 1018.98 1019.21 1019.49 1019.62 1019.77 1019.81 1019.84
1016.91 1016.99 1017.32 1017.38 1017.51 1017.65 1017.84 1017.89 1018.01 1018.11 1018.19 1018.25 1018.30 1018.34 1018.51 1018.64 1018.64 1018.71 1018.77 1018.87 1019.05 1019.09 1019.19 1019.21 1019.25 1019.25 1019.33 1019.38 1019.39 1019.43 1019.30 1019.25 1019.20 1018.77 1018.91 1019.12 1019.21 1019.39 1019.47 1019.52 1019.68 1019.89 1020.01
1017.21 1016.96 1017.28 1017.63 1017.80 1017.98 1018.08 1018.22 1018.34 1018.44 1018.47 1018.49 1018.61 1018.69 1018.77 1018.82 1018.93 1018.98 1019.03 1019.13 1019.29 1019.36 1019.45 1019.39 1019.45 1019.40 1019.47 1019.51 1019.54 1019.46 1019.38 1019.19 1018.77 1018.61 1018.68 1018.88 1019.07 1019.47 1019.49 1019.53 1019.67 1019.93 1020.03
1017.28 1017.12 1017.47 1017.97 1018.10 1018.24 1018.37 1018.49 1018.59 1018.65 1018.67 1018.79 1018.93 1019.00 1019.05 1019.12 1019.16 1019.21 1019.31 1019.38 1019.49 1019.63 1019.66 1019.62 1019.59 1019.59 1019.59 1019.54 1019.53 1019.45 1019.36 1019.23 1018.63 1018.55 1018.57 1018.64 1018.98 1019.38 1019.43 1019.53 1019.64 1019.74 1019.95
1017.50 1017.42 1017.84 1017.99 1018.30 1018.46 1018.62 1018.74 1018.82 1018.86 1018.92 1019.06 1019.22 1019.25 1019.20 1019.21 1019.25 1019.33 1019.38 1019.50 1019.66 1019.73 1019.68 1019.64 1019.65 1019.62 1019.59 1019.55 1019.49 1019.45 1019.36 1019.18 1018.63 1018.56 1018.50 1018.43 1018.93 1019.21 1019.27 1019.35 1019.51 1019.64 1019.83
1017.65 1017.75 1018.25 1018.27 1018.39 1018.50 1018.67 1018.97 1019.09 1019.13 1019.23 1019.31 1019.35 1019.37 1019.36 1019.34 1019.39 1019.45 1019.56 1019.59 1019.58 1019.59 1019.57 1019.55 1019.55 1019.56 1019.55 1019.49 1019.42 1019.34 1019.25 1019.09 1018.44 1018.38 1018.36 1018.24 1018.89 1019.02 1019.11 1019.18 1019.25 1019.46 1019.61
1017.93 1018.13 1018.45 1018.64 1018.68 1018.88 1018.93 1019.03 1019.24 1019.32 1019.40 1019.37 1019.36 1019.51 1019.47 1019.25 1019.25 1019.24 1019.49 1019.57 1019.51 1019.48 1019.45 1019.39 1019.40 1019.34 1019.43 1019.39 1019.29 1019.21 1019.17 1018.47 1018.31 1018.28 1018.16 1018.34 1018.65 1018.72 1018.86 1018.96 1019.05 1019.21 1019.39
1017.78 1018.14 1018.32 1018.59 1018.74 1018.99 1018.93 1019.09 1019.15 1019.19 1019.19 1019.29 1019.41 1019.56 1019.47 1019.55 1019.58 1019.50 1019.48 1019.57 1019.46 1019.44 1019.29 1019.31 1019.33 1019.27 1019.18 1018.97 1018.69 1018.91 1018.51 1018.43 1018.31 1018.11 1017.92 1018.34 1018.52 1018.49 1018.53 1018.66 1018.80 1018.88 1019.06
1017.65 1018.02 1018.41 1018.58 1018.81 1018.94 1018.92 1019.06 1019.12 1019.23 1019.28 1019.40 1019.65 1019.67 1019.67 1019.69 1019.65 1019.49 1019.38 1019.29 1019.25 1019.29 1018.88 1018.91 1018.83 1018.76 1018.91 1018.96 1018.79 1018.57 1018.50 1018.42 1018.07 1017.85 1017.66 1018.10 1018.22 1018.18 1018.19 1018.28 1018.34 1018.46 1018.61
1017.48 1017.81 1018.19 1018.49 1018.84 1018.96 1018.99 1019.01 1019.12 1019.23 1019.39 1019.47 1019.55 1019.76 1019.82 1019.57 1019.55 1019.50 1019.23 1019.23 1019.31 1019.19 1019.10 1018.91 1018.89 1018.83 1018.82 1018.75 1018.49 1018.36 1018.27 1018.08 1017.73 1017.56 1017.37 1017.67 1017.78 1017.79 1017.76 1017.82 1017.84 1017.95 1018.12
1017.29 1017.53 1017.91 1018.29 1018.67 1018.90 1019.17 1019.10 1019.24 1019.37 1019.40 1019.43 1019.59 1019.64 1019.72 1019.61 1019.56 1019.41 1019.20 1019.14 1019.13 1019.17 1019.01 1018.99 1018.89 1018.87 1018.83 1018.62 1018.43 1018.36 1018.18 1018.01 1017.75 1017.44 1017.24 1017.39 1017.40 1017.27 1017.25 1017.35 1017.51 1017.61 1017.66
1017.23 1017.43 1017.78 1018.15 1018.43 1018.77 1018.94 1019.17 1019.23 1019.34 1019.33 1019.41 1019.33 1019.29 1019.49 1019.35 1019.19 1018.98 1018.89 1018.80 1018.89 1018.95 1018.87 1018.83 1018.90 1018.82 1018.67 1018.63 1018.29 1018.11 1017.95 1017.74 1017.33 1017.31 1016.90 1016.72 1017.05 1017.10 1016.97 1016.88 1016.92 1017.08 1017.23
1016.83 1017.26 1017.53 1017.83 1018.11 1018.55 1018.80 1019.00 1019.13 1019.12 1019.05 1019.09 1019.04 1019.11 1019.12 1019.10 1018.99 1019.05 1018.71 1018.57 1018.62 1018.88 1018.97 1018.84 1018.73 1018.59 1018.39 1018.22 1018.25 1017.89 1017.59 1017.25 1016.95 1016.88 1016.77 1016.52 1016.35 1016.63 1016.69 1016.54 1016.39 1016.49 1016.58
1016.39 1016.89 1017.32 1017.49 1017.77 1018.12 1018.36 1018.62 1018.74 1018.77 1018.85 1018.77 1018.72 1018.71 1018.78 1018.80 1018.83 1018.77 1018.49 1018.27 1018.36 1018.63 1018.62 1018.48 1018.51 1018.38 1018.22 1018.11 1017.97 1017.62 1017.33 1017.01 1016.72 1016.61 1016.43 1016.31 1016.11 1016.03 1015.99 1015.98 1015.98 1015.95 1015.98
1016.19 1016.62 1017.00 1017.27 1017.46 1017.77 1018.07 1018.30 1018.43 1018.52 1018.53 1018.37 1018.33 1018.26 1018.39 1018.43 1018.40 1018.52 1018.23 1018.17 1018.39 1018.15 1018.11 1018.29 1018.31 1018.43 1018.10 1017.82 1017.52 1017.23 1017.03 1016.67 1016.22 1015.92 1016.15 1016.09 1015.95 1015.86 1015.49 1015.31 1015.53 1015.63 1015.52
1015.73 1016.25 1016.76 1017.13 1017.30 1017.51 1017.67 1018.11 1018.13 1018.17 1018.16 1018.14 1017.99 1017.89 1018.01 1017.97 1018.15 1018.22 1017.99 1018.07 1018.17 1018.17 1018.22 1018.23 1018.37 1018.24 1018.05 1017.79 1017.51 1017.04 1016.80 1016.33 1015.87 1015.91 1015.87 1015.66 1015.57 1015.54 1015.32 1015.27 1015.16 1014.85 1015.01
1015.36 1015.96 1016.43 1016.89 1017.19 1017.55 1017.65 1017.67 1017.69 1017.53 1017.67 1017.72 1017.67 1017.84 1017.98 1017.97 1017.97 1017.99 1017.83 1017.95 1018.14 1018.19 1018.20 1018.30 1018.36 1018.23 1017.76 1018.01 1017.43 1016.69 1016.36 1016.15 1015.92 1015.90 1015.45 1015.29 1015.21 1015.19 1015.35 1015.12 1014.99 1014.69 1014.45
1014.69 1015.23 1015.88 1016.41 1016.82 1017.14 1017.31 1017.43 1017.39 1017.35 1017.35 1017.38 1017.37 1017.61 1017.75 1017.76 1017.80 1017.86 1017.87 1017.87 1017.82 1017.92 1018.13 1018.31 1018.39 1018.25 1018.29 1018.23 1017.61 1016.92 1016.11 1015.79 1015.85 1015.79 1015.63 1015.49 1015.32 1015.21 1015.01 1014.93 1015.00 1014.79 1014.48
1013.85 1014.41 1014.89 1015.52 1016.11 1016.49 1016.73 1017.10 1017.27 1017.39 1017.40 1017.38 1017.40 1017.45 1017.41 1017.52 1017.54 1017.68 1017.69 1017.67 1017.77 1018.04 1017.96 1018.27 1018.46 1018.35 1018.13 1018.41 1018.32 1017.67 1016.59 1016.11 1016.11 1015.40 1015.48 1015.48 1015.56 1015.23 1015.10 1014.93 1014.78 1014.41 1014.10
1012.76 1013.40 1014.02 1014.65 1015.31 1015.84 1016.31 1016.56 1016.72 1016.57 1016.55 1016.66 1016.92 1016.94 1017.05 1017.22 1017.16 1017.25 1017.53 1017.55 1017.65 1017.80 1018.23 1018.21 1018.37 1018.63 1018.83 1018.36 1018.36 1018.17 1017.91 1017.63 1016.73 1015.61 1015.32 1015.27 1015.24 1015.17 1014.99 1014.74 1014.29 1014.02 1013.68
1011.80 1012.46 1013.09 1013.78 1014.40 1014.95 1015.52 1015.85 1016.02 1016.17 1016.19 1016.33 1016.57 1016.82 1017.00 1017.13 1017.26 1017.31 1017.61 1018.08 1018.39 1017.83 1018.01 1018.32 1018.51 1018.57 1018.52 1018.59 1018.27 1018.11 1017.74 1017.28 1017.27 1017.09 1015.42 1014.85 1014.77 1014.59 1014.52 1014.21 1013.80 1013.39 1013.04
1010.99 1011.55 1012.16 1012.87 1013.39 1014.00 1014.64 1015.22 1015.51 1015.58 1015.70 1015.95 1016.14 1016.38 1016.67 1016.97 1017.21 1017.46 1017.88 1017.99 1018.14 1018.23 1018.04 1018.10 1018.36 1018.41 1018.56 1018.63 1018.36 1018.16 1017.72 1017.35 1016.94 1016.90 1016.16 1015.28 1014.64 1013.97 1013.90 1013.69 1013.25 1012.81 1012.39
Wind_Speed
4 1 7 13 16 19 20 19 17 17 16 15 14 14 14 14 13 12 11 11 12 13 13 12 12 12 13 14 14 13 12 11 11 10 10 10 8 9 11 9 5 9 8
11 8 12 14 16 17 18 17 16 15 15 15 14 13 13 12 12 11 11 11 12 12 12 11 11 10 12 13 12 11 11 9 9 8 9 9 7 6 7 8 5 9 7
13 8 14 14 16 16 16 15 15 14 14 14 13 13 12 12 12 11 12 11 11 12 11 11 11 11 10 12 11 10 10 8 6 7 5 4 6 5 5 5 7 6 6
14 12 14 13 15 16 15 14 14 13 14 13 13 13 12 12 12 11 12 11 10 10 10 11 11 10 11 11 9 8 7 7 6 5 2 3 4 6 4 4 4 6 6
11 13 14 14 14 15 14 12 13 13 13 13 12 12 12 11 11 11 11 10 9 9 9 10 10 10 10 9 7 6 4 2 3 2 1 1 2 6 3 3 6 5 2
9 12 12 13 14 14 13 12 12 12 11 11 11 12 11 10 11 11 10 8 9 10 8 9 9 9 8 7 6 5 4 3 4 4 4 1 3 3 4 4 4 3 2
9 12 12 11 11 12 12 12 12 10 10 10 10 10 10 10 9 9 8 8 8 7 7 7 7 7 6 4 4 4 4 4 6 2 3 4 3 4 4 4 3 3 3
11 10 11 11 10 10 10 11 11 10 10 9 9 9 10 9 9 8 6 6 6 5 5 5 5 5 3 3 4 4 5 6 3 3 2 4 4 6 5 5 5 5 5
10 9 9 9 9 10 9 10 10 9 9 9 9 8 8 7 7 6 4 3 2 2 1 2 2 1 1 2 4 5 6 5 7 4 5 3 8 8 8 8 6 6 6
8 9 6 8 7 7 8 9 8 8 8 8 7 6 6 5 4 4 1 2 2 2 2 3 2 2 3 4 5 6 7 6 7 5 5 4 5 10 10 10 9 9 9
8 8 6 6 7 6 6 7 7 6 5 6 5 4 3 3 2 1 3 3 4 3 4 5 4 5 5 7 6 7 9 5 6 5 4 2 9 12 12 12 11 11 11
11 10 8 7 7 6 5 5 5 5 3 2 1 1 1 1 2 4 4 7 6 5 6 7 6 6 4 5 4 5 4 6 5 5 5 3 9 12 14 13 13 13 13
12 10 10 8 7 7 5 4 3 3 3 2 3 3 3 3 2 3 3 3 3 4 5 4 5 4 5 4 4 5 5 6 5 5 6 5 9 13 15 15 14 15 15
13 13 12 10 8 8 5 5 4 3 3 3 3 4 3 4 3 3 3 3 3 3 5 4 4 5 6 7 7 7 7 6 5 5 6 8 9 11 14 16 16 16 16
14 13 13 12 10 8 7 5 4 4 4 4 5 5 5 5 4 5 4 4 4 3 4 5 4 5 7 7 9 8 9 8 9 6 5 7 11 10 12 15 17 16 17
12 13 12 12 11 9 8 7 5 5 5 6 6 6 6 6 5 5 5 5 4 3 4 4 5 5 6 6 8 9 10 9 10 8 7 7 9 11 11 14 16 17 16
12 12 13 13 12 11 10 8 6 6 6 6 6 7 8 7 7 7 6 6 4 2 3 3 4 4 5 5 8 8 8 9 9 9 9 7 7 9 13 14 16 18 19
13 13 13 11 12 12 10 8 7 6 6 6 6 6 7 7 7 6 5 5 4 3 4 4 5 5 6 6 6 7 7 8 10 10 10 8 8 7 8 14 16 16 18
14 13 13 13 13 13 11 9 8 8 7 6 5 4 5 5 4 4 4 4 4 4 4 4 4 4 5 6 7 7 7 7 8 7 8 8 9 9 7 8 10 13 17
13 13 12 11 13 12 9 8 6 6 7 5 5 5 5 4 4 4 3 4 4 4 4 4 5 4 6 6 7 8 8 8 7 5 5 5 7 8 8 7 7 7 11
12 12 13 13 12 9 8 8 8 8 7 7 6 7 7 6 6 5 4 4 3 4 5 5 5 6 5 4 7 8 6 5 7 3 7 6 7 8 8 7 6 6 7
15 15 14 14 13 11 9 7 6 6 6 7 6 7 9 8 7 6 4 4 3 3 5 5 5 5 4 4 5 7 6 5 0 11 3 9 6 8 9 9 9 11 10
17 16 16 16 15 13 13 8 6 5 4 5 7 7 8 7 6 5 4 3 3 3 3 4 4 4 6 4 5 4 5 4 11 1 8 5 10 8 9 11 12 11 11
19 17 17 16 16 14 14 11 12 10 9 8 6 5 4 4 5 4 4 3 3 1 1 1 2 4 4 6 5 2 4 6 6 8 5 10 6 10 11 10 11 12 12
19 17 17 17 16 15 14 14 12 13 9 7 5 6 5 2 1 3 4 3 0 2 3 1 3 3 2 5 5 6 6 5 5 5 12 11 11 10 11 11 11 12 14
18 18 17 17 16 16 16 16 15 14 12 9 9 7 5 3 3 3 2 2 3 3 1 0 1 2 4 5 5 6 6 5 8 7 11 13 14 12 11 13 13 12 12
Wind_Direction
74 95 128 104 96 99 101 103 107 110 113 110 107 105 104 105 107 106 101 98 94 88 86 83 87 95 97 93 93 93 94 95 101 107 103 108 102 87 92 96 132 101 98
131 196 121 101 96 96 98 103 108 109 110 110 109 107 105 106 105 108 109 99 97 95 93 92 89 89 96 95 96 98 96 96 100 103 113 110 99 103 107 106 86 94 98
134 142 113 101 100 101 103 107 109 113 116 112 109 104 106 107 105 104 101 101 99 97 101 104 93 85 94 94 91 92 88 80 84 86 99 104 91 105 99 115 115 114 108
130 125 116 100 102 105 107 110 111 110 109 111 111 111 108 104 104 91 94 89 91 95 88 90 93 90 89 91 96 97 92 80 89 89 101 54 88 107 103 115 130 130 125
124 126 117 107 103 106 106 106 105 112 114 114 112 105 97 97 98 97 94 96 101 106 106 102 101 97 97 95 92 86 82 92 106 188 60 11 349 110 139 149 160 140 118
135 135 123 119 113 108 111 103 105 102 102 107 102 102 98 96 101 107 111 114 112 117 113 103 107 98 90 86 81 55 28 354 256 275 259 198 272 81 188 173 167 123 144
136 135 133 122 118 113 116 112 110 109 105 100 102 98 94 98 100 104 86 103 93 93 99 103 104 93 81 53 29 9 347 345 340 330 246 234 222 212 221 208 174 195 200
128 142 126 125 129 121 121 116 113 111 106 103 99 89 90 92 97 98 103 94 96 103 102 100 93 90 72 34 2 338 327 325 325 2 260 219 180 214 222 231 232 234 221
136 137 143 135 137 129 122 119 117 109 100 90 90 101 104 103 101 103 100 101 120 136 132 120 105 76 38 353 335 324 309 323 299 322 296 255 169 220 229 239 230 228 226
150 142 122 131 137 141 135 124 117 112 109 106 107 103 93 89 91 101 108 159 228 247 271 290 281 285 287 287 287 294 296 284 274 288 270 267 190 223 233 235 225 229 227
165 157 147 137 145 137 140 136 139 134 124 118 126 112 131 99 86 96 20 298 302 295 300 299 298 280 287 268 278 289 288 274 278 268 275 218 221 229 235 234 227 222 233
177 172 168 167 158 158 154 156 157 152 149 135 174 253 267 350 327 315 301 308 315 333 309 313 312 320 302 317 290 254 277 296 288 281 271 250 251 244 239 233 231 221 226
183 181 180 178 177 177 169 173 174 177 186 194 244 277 319 312 317 300 303 297 305 331 302 302 296 300 302 305 288 287 282 276 274 275 285 265 258 259 250 235 233 223 224
187 189 185 188 186 194 191 192 189 204 209 237 251 274 280 283 293 293 298 305 289 323 304 292 307 304 306 306 299 295 288 287 274 274 275 250 257 266 259 238 233 224 220
194 192 192 189 194 198 204 205 218 228 231 249 258 262 266 274 276 284 297 299 315 325 311 309 330 317 312 314 309 303 290 294 283 274 279 263 260 261 249 246 239 234 229
203 200 194 198 198 200 207 210 217 231 243 247 255 258 251 261 272 284 286 289 301 310 323 326 338 320 312 310 306 304 296 290 287 283 277 276 250 267 262 247 238 239 239
203 205 202 200 201 206 212 219 226 232 235 245 250 253 258 263 272 281 275 273 283 310 298 300 325 316 308 310 303 300 295 292 289 284 276 273 274 243 261 261 244 239 241
200 201 204 202 201 207 210 215 224 226 235 248 252 259 266 271 270 269 271 279 293 287 298 304 319 315 318 324 324 314 307 297 294 284 278 276 272 278 255 242 255 251 243
205 202 204 203 205 206 212 218 221 230 239 254 255 251 259 260 279 277 293 303 291 278 283 294 297 301 311 318 318 314 306 303 296 299 298 291 286 276 282 274 245 259 260
207 205 207 208 211 205 207 214 226 235 243 247 244 245 252 269 284 271 282 303 295 297 304 299 286 284 292 311 312 315 308 303 303 312 324 318 315 312 303 298 295 275 256
210 205 206 208 210 205 205 212 222 225 232 239 241 254 266 263 256 255 273 300 299 299 307 298 301 298 301 324 304 322 314 311 323 12 326 327 326 329 327 319 300 311 293
209 209 205 211 209 206 209 217 230 228 240 252 257 259 253 252 255 258 271 277 275 291 295 307 310 313 304 341 328 305 325 339 266 326 338 323 10 333 318 316 322 310 301
214 209 207 207 211 211 212 213 218 232 238 243 240 244 241 244 261 254 257 266 283 283 328 346 340 342 325 328 331 320 326 330 327 9 317 324 327 322 324 316 308 305 296
216 212 211 205 207 211 206 212 220 229 235 237 239 238 226 236 250 227 242 214 123 87 32 14 2 351 336 323 312 306 291 304 319 318 318 311 305 311 313 302 303 298 298
215 211 212 205 205 206 203 212 213 225 236 239 231 229 220 218 210 177 146 102 298 219 145 315 344 336 324 311 321 317 313 301 282 276 303 316 309 308 310 303 301 296 292
213 211 209 204 204 202 203 210 215 222 224 229 227 230 226 196 168 169 130 154 205 246 228 333 2 332 327 305 302 303 308 317 314 306 300 307 305 306 310 299 294 292 291